Location: Shenandoah County Park
(38.9356°N, 78.4524°W)
Time: 17:29:34
(UTC-04:00)

ITAMSAT 1 - Visible Passes

Search period start: 26 May 2024 00:00
Search period end: 05 June 2024 00:00
Orbit: 782 x 796 km, 98.8° (Epoch: 25 May)

Date Brightness Start Highest point End Pass type
(mag) Time Alt. Az. Time Alt. Az. Time Alt. Az.
26 May 7.9 21:16:28 10° SSE 21:21:29 52° ENE 21:26:30 10° N visible
26 May 9.9 22:57:46 10° SW 23:01:11 18° W 23:04:37 10° NW visible
27 May 9.0 22:26:30 11° SSW 22:31:04 34° W 22:35:46 10° NNW visible
28 May 7.9 21:56:11 11° S 22:01:04 67° WSW 22:06:15 10° NNW visible
29 May 7.7 21:26:05 10° SSE 21:31:12 64° ENE 21:36:20 10° N visible
29 May 10.1 23:08:21 10° WSW 23:11:02 14° W 23:13:43 10° WNW visible
30 May 8.5 20:56:51 10° SE 21:01:28 34° ENE 21:06:04 10° N visible
30 May 9.3 22:36:29 10° SSW 22:40:52 28° W 22:45:17 10° NW visible
31 May 8.3 22:05:57 11° S 22:10:50 54° W 22:15:55 10° NNW visible
01 Jun 7.6 21:35:45 10° SSE 21:40:55 79° ENE 21:46:07 10° N visible
01 Jun 10.2 23:19:29 10° WSW 23:20:54 11° W 23:22:19 10° WNW visible
02 Jun 8.3 21:06:19 10° SE 21:11:09 41° ENE 21:15:58 10° N visible
02 Jun 9.6 22:46:41 10° SW 22:50:41 22° W 22:54:42 10° NW visible
03 Jun 8.6 22:15:43 10° S 22:20:36 43° W 22:25:32 10° NNW visible
04 Jun 7.7 21:45:29 10° SSE 21:50:39 85° WSW 21:55:52 10° NNW visible
